Retour au catalogue

STARLINK-37048

ActifCommunicationsSSO
NORAD 68155·PAYLOAD·🇺🇸 United States

Lancé Mar 13, 2026 depuis Vandenberg Space Force Base

Loading…

Prochains Passages (prochaines 24 heures)

TLE

FraisSource: CelesTrak SupGP

Époque: Sep 14, 2026, 21:10 UTC

1 68155C 26049P   26257.88243056  .00013510  00000+0  41942-3 0  2573
2 68155  97.2837 277.8519 0001198 110.1205 319.5077 15.33429726    16

Suivez STARLINK-37048 en temps réel avec AllMySat

Download on the App Store